LEMUR-2-MARSHALL (43165 NORAD) Tracking and Keplerian Element Data

This shows tracking and keplerian element data for the satellite.

Feedback or suggestion? Click here.




ElementValue
Catalog43165
NameLEMUR-2-MARSHALL
Epoch Orbit30179
Epoch Day175.71541863
Epoch Year2023
RAAN65.6447
Inclination82.8921
Eccentricity0.0009716
Argument of Perigee70.9465
Mean Anonmoly289.2849
Mean Motion15.67981405
Decay Rate0.00213924
L11 43165U 18010C 23175.71541863 .00213924 00000+0 18878-2 0 9996
L22 43165 82.8921 65.6447 0009716 70.9465 289.2849 15.67981405301795



Live tracking and technical data element details for LEMUR-2-MARSHALL (NORAD 43165). LEMUR-2-MARSHALL can be tracked NOW for your location showing map with azimuth and elevation plus other details from your city location.







IsCatalogInMostPopularTable: catalog: 43165, numindb: 460
Update: records affected: 1



GetName: 43165 LEMUR-2-MARSHALL

Hit Count: updated at: Thu, 15 May 2025 19:55:18 GMT